DW2715 Weather Reports


Display with metric or nautical units.
time (UTC)temp
F
wind
direction
speed
MPH
gust
MPH
rain 1hr
in
rain 24hr
in
rain mn
in
humidity
%
barometer
mb
20240522000003 62 215 0.0 5.0 0.00 0.75 0.00 72 1008.2
20240521235502 62 211 1.0 5.0 0.00 0.76 0.00 71 1008.2
20240521235002 62 231 2.0 8.0 0.00 0.77 0.00 71 1008.2
20240521234503 62 232 1.0 8.0 0.00 0.80 0.00 70 1008.2
20240521234002 62 239 2.0 12.0 0.00 0.80 0.00 71 1008.2
20240521233002 62 228 1.0 9.0 0.00 0.80 0.00 71 1008.2
20240521232502 62 244 1.0 8.0 0.00 0.80 0.00 72 1008.2
20240521232003 62 201 0.0 6.0 0.00 0.80 0.00 71 1008.2
20240521231502 62 232 0.0 0.0 0.00 0.80 0.00 71 1008.3
20240521231003 62 246 0.0 0.0 0.00 0.80 0.00 71 1008.3
20240521230502 62 242 0.0 0.0 0.00 0.80 0.00 72 1008.2
20240521230002 62 232 0.0 0.0 0.00 0.80 0.00 72 1008.2
20240521225506 62 222 0.0 0.0 0.00 0.80 0.00 72 1008.3
20240521225002 62 231 0.0 0.0 0.00 0.80 0.00 72 1008.3
20240521224503 62 238 0.0 0.0 0.00 0.80 0.00 73 1008.3
20240521224002 62 234 0.0 0.0 0.00 0.80 0.00 74 1008.4
20240521223003 62 245 0.0 0.0 0.00 0.80 0.00 74 1008.3
20240521222503 62 256 0.0 0.0 0.00 0.80 0.00 74 1008.4
20240521222002 62 240 0.0 0.0 0.00 0.80 0.00 73 1008.3
20240521221502 62 262 0.0 0.0 0.00 0.80 0.00 73 1008.2
20240521221002 63 257 0.0 0.0 0.00 0.80 0.00 72 1008.2
20240521220505 63 241 0.0 5.0 0.00 0.80 0.00 71 1008.2
20240521220002 63 229 0.0 8.0 0.00 0.80 0.00 70 1008.1
20240521215502 63 238 1.0 8.0 0.00 0.80 0.80 70 1008.1
20240521215002 63 226 0.0 7.0 0.00 0.80 0.80 69 1008.0
20240521214502 64 252 1.0 5.0 0.00 0.80 0.80 69 1008.1
20240521214002 64 216 1.0 8.0 0.00 0.80 0.80 69 1008.0
20240521213502 64 230 1.0 8.0 0.00 0.80 0.80 68 1008.0
20240521213003 64 209 0.0 7.0 0.00 0.80 0.80 68 1008.0
20240521212502 64 272 0.0 7.0 0.00 0.80 0.80 67 1007.9
20240521211502 65 238 3.0 9.0 0.00 0.80 0.80 67 1007.9
20240521211003 65 252 5.0 10.0 0.00 0.80 0.80 66 1007.8
20240521210503 65 248 3.0 10.0 0.00 0.80 0.80 67 1007.8
20240521210003 65 239 2.0 10.0 0.00 0.80 0.80 67 1007.8
20240521205502 65 233 3.0 11.0 0.00 0.80 0.80 67 1007.7
20240521205004 65 224 2.0 11.0 0.00 0.81 0.80 67 1007.6
20240521204500 65 235 2.0 10.0 0.00 0.81 0.80 66 1007.6
20240521204000 65 238 2.0 8.0 0.00 0.81 0.80 67 1007.5
20240521203500 65 214 2.0 9.0 0.00 0.81 0.80 66 1007.5
20240521202959 65 223 2.0 9.0 0.00 0.82 0.80 66 1007.4
20240521202457 65 249 2.0 12.0 0.00 0.82 0.80 66 1007.3
20240521201458 65 231 2.0 11.0 0.00 0.82 0.80 68 1007.2
20240521200458 65 213 2.0 8.0 0.00 0.82 0.80 70 1007.1
20240521195958 66 247 2.0 8.0 0.00 0.82 0.80 70 1007.1
20240521195500 66 219 1.0 8.0 0.00 0.82 0.80 69 1007.1
20240521194958 66 223 1.0 7.0 0.00 0.82 0.80 70 1006.9
20240521194457 66 246 1.0 8.0 0.00 0.82 0.80 72 1006.9
20240521193458 66 223 2.0 7.0 0.00 0.82 0.80 76 1006.7
20240521192957 67 227 1.0 6.0 0.00 0.82 0.80 78 1006.6
20240521192455 67 260 0.0 0.0 0.00 0.82 0.80 78 1006.6
20240521191955 68 260 0.0 0.0 0.00 0.83 0.80 78 1006.6
20240521191449 68 260 0.0 0.0 0.00 0.83 0.80 77 1006.5
20240521190945 68 260 0.0 0.0 0.00 0.83 0.80 77 1006.5
20240521190445 69 260 0.0 0.0 0.00 0.83 0.80 76 1006.4
20240521185946 69 260 0.0 0.0 0.00 0.83 0.80 76 1006.3
20240521184946 69 260 0.0 0.0 0.00 0.83 0.80 75 1006.3
20240521184442 69 260 0.0 0.0 0.00 0.83 0.80 74 1006.3
20240521183943 69 261 0.0 0.0 0.00 0.83 0.80 74 1006.2
20240521183441 69 261 0.0 0.0 0.00 0.83 0.80 73 1006.2
20240521182939 69 260 0.0 0.0 0.00 0.83 0.80 73 1006.1
20240521182437 69 260 0.0 0.0 0.00 0.83 0.80 73 1006.0
20240521180437 70 281 0.0 0.0 0.00 0.83 0.80 73 1005.9
20240521175937 70 281 0.0 0.0 0.00 0.83 0.80 72 1005.9
20240521174935 70 281 0.0 0.0 0.00 0.83 0.80 72 1005.9
20240521174433 70 281 0.0 0.0 0.00 0.83 0.80 72 1005.9
20240521173934 70 256 0.0 0.0 0.00 0.83 0.80 72 1005.9
20240521173433 70 256 0.0 0.0 0.00 0.83 0.80 71 1005.9
20240521172933 70 250 0.0 0.0 0.00 0.83 0.80 71 1005.9
20240521172430 70 262 0.0 3.0 0.00 0.83 0.80 71 1006.0
20240521171930 70 264 0.0 3.0 0.00 0.83 0.80 71 1006.0
20240521171431 70 246 0.0 2.0 0.00 0.83 0.80 71 1005.9
20240521170431 70 248 1.0 4.0 0.00 0.83 0.80 70 1005.8
20240521165931 70 241 1.0 9.0 0.00 0.83 0.80 70 1005.8
20240521165434 70 194 1.0 10.0 0.00 0.83 0.80 70 1005.8
20240521164931 71 239 2.0 10.0 0.00 0.83 0.80 69 1005.7
20240521164431 71 245 2.0 9.0 0.00 0.83 0.80 69 1005.7
20240521163930 71 259 2.0 8.0 0.00 0.83 0.80 68 1005.7
20240521163431 71 251 2.0 8.0 0.00 0.83 0.80 68 1005.8
20240521162930 71 243 3.0 8.0 0.00 0.83 0.80 67 1005.8
20240521161930 73 267 3.0 8.0 0.00 0.83 0.80 66 1005.8
20240521161433 72 245 2.0 7.0 0.00 0.83 0.80 67 1005.7
20240521160931 72 248 3.0 9.0 0.00 0.83 0.80 67 1005.8
20240521160430 72 223 4.0 10.0 0.00 0.83 0.80 67 1005.8
20240521154926 71 254 2.0 8.0 0.00 0.83 0.80 69 1005.8
20240521154427 71 262 3.0 11.0 0.00 0.83 0.80 69 1005.8
20240521153925 71 260 2.0 11.0 0.00 0.83 0.80 68 1005.9
20240521153425 71 271 2.0 6.0 0.00 0.83 0.80 72 1005.8
20240521152924 70 268 1.0 6.0 0.00 0.83 0.80 72 1005.8
20240521152423 70 245 0.0 3.0 0.00 0.83 0.80 73 1005.9
20240521151923 70 281 1.0 7.0 0.00 0.83 0.80 73 1005.8
20240521150921 70 244 3.0 10.0 0.00 0.83 0.80 71 1005.9
20240521150416 70 221 1.0 9.0 0.00 0.83 0.80 73 1006.0
20240521145911 70 246 1.0 9.0 0.00 0.83 0.80 73 1006.0
20240521145405 70 273 2.0 11.0 0.00 0.83 0.80 73 1006.0
20240521144352 69 236 3.0 11.0 0.00 0.83 0.80 74 1005.9
20240521143846 69 242 2.0 10.0 0.00 0.83 0.80 74 1005.9
20240521143340 69 239 2.0 9.0 0.00 0.83 0.80 74 1005.9
20240521142838 69 245 3.0 9.0 0.00 0.83 0.80 76 1005.9
20240521142338 69 237 3.0 9.0 0.00 0.83 0.80 76 1005.9
20240521141836 69 216 2.0 7.0 0.00 0.83 0.80 77 1006.0
20240521141338 68 257 2.0 6.0 0.00 0.83 0.80 78 1006.0
20240521140837 68 235 2.0 10.0 0.00 0.83 0.80 78 1006.0
20240521140337 68 225 1.0 10.0 0.00 0.83 0.80 77 1006.1
20240521135835 68 257 1.0 8.0 0.00 0.83 0.80 79 1006.1
20240521135331 67 245 2.0 8.0 0.00 0.83 0.80 79 1006.1
20240521134831 67 252 2.0 8.0 0.00 0.83 0.80 79 1006.2
20240521134331 67 265 2.0 8.0 0.00 0.83 0.80 81 1006.2
20240521133830 67 273 3.0 9.0 0.00 0.83 0.80 82 1006.1
20240521133331 67 297 3.0 9.0 0.00 0.83 0.80 83 1006.1
20240521132831 66 223 2.0 7.0 0.00 0.83 0.80 84 1006.1
20240521132330 66 250 1.0 7.0 0.00 0.83 0.80 85 1006.1
20240521131831 65 293 1.0 6.0 0.01 0.83 0.80 86 1006.2
20240521131330 65 259 1.0 6.0 0.01 0.83 0.80 88 1006.1
20240521130830 64 251 0.0 1.0 0.01 0.83 0.80 89 1006.1
20240521130331 64 294 1.0 8.0 0.01 0.83 0.80 89 1006.1
20240521125830 63 296 2.0 8.0 0.01 0.83 0.80 90 1006.2
20240521125331 63 279 1.0 7.0 0.01 0.83 0.80 90 1006.3
20240521124831 63 244 0.0 0.0 0.01 0.83 0.80 91 1006.3
20240521124332 63 265 1.0 8.0 0.01 0.83 0.80 91 1006.3
20240521123831 63 255 1.0 8.0 0.01 0.83 0.80 91 1006.3
20240521123330 62 254 1.0 7.0 0.01 0.83 0.80 92 1006.4
20240521122831 62 245 1.0 7.0 0.01 0.83 0.80 91 1006.3
20240521122330 62 243 1.0 7.0 0.01 0.83 0.79 92 1006.4
20240521121831 62 267 1.0 5.0 0.00 0.82 0.79 92 1006.4
20240521121331 62 246 1.0 5.0 0.01 0.82 0.79 92 1006.4
20240521120834 62 254 1.0 4.0 0.02 0.82 0.79 92 1006.4
20240521120330 62 260 0.0 3.0 0.02 0.82 0.79 92 1006.4
20240521115830 62 294 0.0 3.0 0.03 0.82 0.79 92 1006.3
20240521114831 62 299 1.0 8.0 0.05 0.82 0.79 92 1006.3
20240521114331 62 265 1.0 8.0 0.06 0.82 0.79 92 1006.3
20240521113830 62 318 1.0 4.0 0.06 0.82 0.79 92 1006.3
20240521113333 62 282 0.0 3.0 0.07 0.82 0.79 93 1006.3
20240521112830 62 263 1.0 6.0 0.07 0.82 0.79 93 1006.3
20240521112330 62 259 0.0 6.0 0.07 0.82 0.79 93 1006.3
20240521111830 62 257 0.0 1.0 0.07 0.82 0.79 93 1006.3
20240521111330 61 256 0.0 1.0 0.06 0.81 0.78 93 1006.2
20240521110830 61 256 0.0 2.0 0.06 0.80 0.77 93 1006.3
20240521110331 61 256 0.0 7.0 0.05 0.80 0.76 93 1006.2
20240521105832 61 243 1.0 7.0 0.04 0.79 0.76 93 1006.2
20240521105328 61 246 2.0 8.0 0.03 0.78 0.75 93 1006.2
20240521104829 61 241 2.0 8.0 0.06 0.77 0.74 93 1006.2
20240521104327 62 246 1.0 7.0 0.13 0.76 0.72 93 1006.1
20240521103327 62 238 1.0 7.0 0.28 0.75 0.72 93 1006.2
20240521102822 62 228 1.0 6.0 0.38 0.75 0.72 93 1006.1
20240521102322 62 221 1.0 6.0 0.50 0.75 0.72 93 1006.1
20240521101825 62 194 1.0 4.0 0.52 0.75 0.72 93 1006.1
20240521101322 62 245 0.0 3.0 0.52 0.75 0.72 93 1006.0
20240521100322 62 247 0.0 5.0 0.52 0.75 0.72 93 1006.0
20240521095322 62 198 1.0 5.0 0.53 0.75 0.71 92 1006.0
20240521094854 62 200 2.0 8.0 0.50 0.72 0.68 92 1006.0
20240521094320 63 193 2.0 8.0 0.41 0.63 0.60 92 1005.9
20240521093318 64 194 1.0 8.0 0.24 0.46 0.43 92 1005.8
20240521092818 64 154 1.0 5.0 0.15 0.37 0.33 92 1005.7
20240521092318 64 224 0.0 4.0 0.03 0.25 0.20 92 1005.7
20240521091818 64 158 0.0 7.0 0.01 0.23 0.20 92 1005.6
20240521091319 64 154 1.0 7.0 0.02 0.23 0.20 92 1005.6
20240521090820 64 126 1.0 6.0 0.02 0.23 0.20 92 1005.7
20240521090319 64 157 1.0 7.0 0.02 0.23 0.20 92 1005.7
20240521085812 64 141 0.0 7.0 0.06 0.22 0.19 92 1005.7
20240521085305 64 169 0.0 5.0 0.06 0.22 0.19 92 1005.7
20240521084806 64 190 0.0 5.0 0.06 0.22 0.19 92 1005.7
20240521084306 64 112 0.0 3.0 0.06 0.22 0.19 92 1005.7
20240521083806 64 137 0.0 2.0 0.06 0.22 0.19 92 1005.7
20240521083304 64 161 0.0 2.0 0.06 0.22 0.19 92 1005.8
20240521082806 64 150 0.0 3.0 0.06 0.22 0.19 92 1005.7
20240521082308 64 169 1.0 4.0 0.06 0.22 0.19 91 1005.7
20240521081802 64 187 1.0 6.0 0.06 0.22 0.19 91 1005.8
20240521081303 64 155 1.0 6.0 0.06 0.21 0.18 91 1005.8
20240521080803 64 180 1.0 6.0 0.06 0.21 0.18 91 1005.8
20240521080302 64 180 1.0 6.0 0.06 0.21 0.17 91 1005.8
20240521075803 64 173 1.0 5.0 0.01 0.17 0.13 91 1005.8
20240521075304 64 142 1.0 6.0 0.00 0.16 0.13 91 1005.7
20240521074802 64 196 2.0 6.0 0.00 0.16 0.13 91 1005.7
20240521074302 64 185 2.0 6.0 0.00 0.16 0.13 91 1005.7
20240521073802 64 186 1.0 7.0 0.00 0.16 0.13 91 1005.7
20240521073302 64 192 2.0 7.0 0.00 0.16 0.13 91 1005.6
20240521072303 64 181 1.0 8.0 0.00 0.16 0.13 91 1005.6
20240521071803 64 169 1.0 6.0 0.00 0.16 0.13 91 1005.6
20240521071303 64 166 0.0 6.0 0.00 0.16 0.13 91 1005.6
20240521070806 64 183 0.0 4.0 0.00 0.16 0.13 91 1005.6
20240521070303 64 149 0.0 4.0 0.00 0.16 0.13 91 1005.7
20240521065803 64 186 0.0 1.0 0.00 0.16 0.13 91 1005.7
20240521065303 64 180 0.0 2.0 0.01 0.16 0.13 91 1005.7
20240521064803 64 184 1.0 5.0 0.01 0.16 0.13 91 1005.7
20240521064303 64 188 1.0 8.0 0.01 0.16 0.13 91 1005.6
20240521063306 64 181 0.0 4.0 0.01 0.16 0.13 91 1005.6
20240521062803 64 194 0.0 0.0 0.01 0.16 0.13 91 1005.5
20240521062302 64 188 0.0 4.0 0.01 0.16 0.13 91 1005.5
20240521061802 64 192 0.0 4.0 0.02 0.16 0.13 91 1005.4
20240521061303 64 143 0.0 4.0 0.02 0.16 0.13 91 1005.3
20240521060802 64 161 0.0 4.0 0.02 0.16 0.13 91 1005.2
20240521060305 64 203 1.0 5.0 0.02 0.16 0.13 91 1005.1
20240521055759 64 221 1.0 5.0 0.02 0.16 0.13 91 1005.0
20240521055253 64 147 1.0 7.0 0.02 0.15 0.12 91 1005.0
20240521054745 64 157 1.0 7.0 0.02 0.15 0.12 91 1005.0
20240521054239 64 96 0.0 9.0 0.02 0.15 0.12 91 1005.1
20240521053739 64 167 0.0 9.0 0.02 0.15 0.12 91 1005.2
20240521053237 64 205 1.0 7.0 0.02 0.15 0.12 91 1005.1
20240521052738 64 169 1.0 7.0 0.02 0.15 0.12 91 1005.1
20240521052237 64 133 0.0 7.0 0.02 0.15 0.12 91 1005.2
20240521051735 64 197 1.0 6.0 0.01 0.14 0.11 91 1005.2
20240521051235 64 131 1.0 6.0 0.01 0.14 0.11 91 1005.1
20240521050736 64 104 1.0 6.0 0.01 0.14 0.11 91 1005.2
20240521050236 64 130 1.0 6.0 0.01 0.14 0.10 91 1005.2
20240521045734 64 184 1.0 5.0 0.00 0.13 0.10 91 1005.2
20240521045233 64 144 1.0 6.0 0.00 0.13 0.10 91 1005.2
20240521044734 64 140 1.0 8.0 0.00 0.13 0.10 91 1005.2
20240521044231 64 189 2.0 9.0 0.00 0.13 0.10 91 1005.2
20240521043731 64 176 2.0 9.0 0.00 0.13 0.10 91 1005.2
20240521042730 64 135 2.0 9.0 0.00 0.13 0.10 91 1005.2
20240521040725 64 142 1.0 7.0 0.00 0.13 0.10 91 1005.0
20240521035714 64 168 1.0 12.0 0.00 0.13 0.10 92 1004.9
20240521035213 64 142 1.0 8.0 0.00 0.13 0.10 92 1005.0
20240521034711 64 148 0.0 8.0 0.00 0.13 0.10 92 1005.0
20240521033712 64 152 1.0 6.0 0.00 0.13 0.10 92 1004.9
20240521033212 63 139 0.0 6.0 0.01 0.13 0.10 92 1005.0
20240521032711 63 130 0.0 3.0 0.01 0.13 0.10 92 1005.0
20240521032211 63 141 0.0 3.0 0.01 0.13 0.10 92 1005.0
20240521031714 63 107 0.0 3.0 0.01 0.13 0.10 92 1004.9
20240521031211 63 148 0.0 3.0 0.01 0.13 0.10 92 1005.0
20240521030709 63 117 0.0 1.0 0.01 0.13 0.10 92 1005.0
20240521030209 63 116 0.0 1.0 0.01 0.13 0.10 92 1005.0
20240521025710 63 116 0.0 6.0 0.01 0.13 0.10 92 1005.0
20240521025209 62 98 0.0 7.0 0.01 0.13 0.10 92 1005.2
20240521024707 62 107 0.0 7.0 0.01 0.13 0.10 92 1005.2
20240521024207 62 108 1.0 9.0 0.01 0.13 0.10 92 1005.4
20240521023704 62 161 1.0 9.0 0.01 0.13 0.10 92 1005.5
20240521023204 62 71 0.0 9.0 0.00 0.13 0.09 92 1005.1
20240521022707 62 90 0.0 7.0 0.00 0.13 0.09 92 1005.3
20240521022204 62 49 0.0 7.0 0.00 0.13 0.09 92 1005.4
20240521021204 62 77 0.0 2.0 0.00 0.13 0.09 92 1005.3
20240521020703 62 55 0.0 0.0 0.00 0.13 0.09 91 1005.5
20240521020202 62 45 0.0 0.0 0.00 0.13 0.09 91 1005.6
20240521015702 62 70 0.0 0.0 0.00 0.13 0.09 91 1005.5
20240521015202 62 32 0.0 0.0 0.00 0.13 0.09 91 1005.5
20240521014703 62 5 0.0 0.0 0.00 0.13 0.09 91 1005.6
20240521013702 62 228 0.0 0.0 0.01 0.13 0.09 91 1005.6
20240521013202 62 228 0.0 0.0 0.01 0.13 0.09 91 1005.7
20240521012702 62 228 0.0 6.0 0.01 0.13 0.09 91 1005.7
20240521012202 62 130 1.0 7.0 0.01 0.13 0.09 91 1005.8
20240521011705 62 99 0.0 7.0 0.02 0.13 0.09 91 1005.8
20240521005705 62 79 1.0 8.0 0.06 0.13 0.09 91 1005.9
20240521005202 62 74 0.0 7.0 0.07 0.13 0.09 91 1005.9
20240521004703 62 67 0.0 3.0 0.09 0.13 0.09 91 1006.0
20240521003702 62 25 0.0 0.0 0.09 0.12 0.09 91 1006.3
20240521003201 62 50 0.0 0.0 0.09 0.12 0.09 90 1006.2
20240521002702 62 30 0.0 0.0 0.09 0.12 0.09 90 1006.5
20240521002202 62 40 0.0 0.0 0.09 0.12 0.08 90 1006.7
20240521001702 62 355 0.0 0.0 0.08 0.11 0.08 90 1006.8
20240521001203 62 76 0.0 0.0 0.07 0.10 0.07 90 1007.0
20240521000702 63 76 0.0 0.0 0.06 0.09 0.06 89 1007.0